SCP
0 0 0 0 0 0 0 0 0 0 0 0 0 0 0 0 0 0 0 0 0 0 0 0 0 0 0 0 0 0 0 0 0 0 0 0 0 0 0 0 0 0 0 0 0 0 0
0 0 0 0 0 0 0 0 0 0 0 0 0 0 0 0 0 0 0 0 0 0 0 0 0 0 0 0 0 0 0 0 0 0 0 0 0 0 0 0 0 0 0 0 0 0 0
0 0 0 0 0 0 0 0 0 0 0 0 0 0 0 0 0 0 0 0 0 0 0 0 0 0 0 0 0 0 0 0 0 0 0 0 0 0 0 0 0 0 0 0 0 0 0
0 0 0 0 0 0 0 0 0 0 0 0 0 0 0 0 0 0 0 0 0 0 0 0 0 0 0 0 0 0 0 0 0 0 0 0 0 0 0 0 0 0 0 0 0 0 0
0 0 0 0 0 0 0 0 0 0 0 0 0 0 0 0 0 0 0 0 0 0 0 0 0 0 0 0 0 0 0 0 0 0 0 0 0 0 0 0 0 0 0 0 0 0 0
0 0 0 0 0 0 0 0 0 0 0 0 0 0 0 0 0 0 0 0 0 0 0 0 0 0 0 0 0 0 0 0 0 0 0 0 0 0 0 0 0 0 0 0 0 0 0
-0 0 0 0 0 0 0 0 0 0 0 0 0 0 0 0 0 0 0 0 0 0 0 0 0 0 0 0 0 0 0 0 0 0 0 0 0 0 0 0 0 0 0 0 0 0 0
0 0 0 0 0 0 0 0 0 0 0 0 0 0 0 0 0 0 0 0 0 0 0 0 0 0 0 0 0 0 0 0 0 0 0 0 0 0 0 0 0 0 0 0 0 0 0
0 0 0 0 0 0 0 0 0 0 0 0 0 0 0 0 0 0 0 0 0 0 0 0 0 0 0 0 0 0 0 0 0 0 0 0 0 0 0 0 0 0 0 0 0 0 0
0 0 0 0 0 0 0 0 0 0 0 0 0 0 0 0 0 0 0 0 0 0 0 0 0 0 0 0 0 0 0 0 0 0 0 0 0 0 0 0 0 0 0 0 0 0 0
0 0 0 0 0 0 0 0 0 0 0 0 0 0 0 0 0 0 0 0 0 0 0 0 0 0 0 0 0 0 0 0 0 0 0 0 0 0 0 0 0 0 0 0 0 0 0
0 0 0 0 0 0 0 0 0 0 0 0 0 0 0 0 0 0 0 0 0 0 0 0 0 0 0 0 0 0 0 0 0 0 0 0 0 0 0 0 0 0 0 0 0 0 0
0 0 0 0 0 0 0 0 0 0 0 0 0 0 0 0 0 0 0 0 0 0 0 0 0 0 0 0 0 0 0 0 0 0 0 0 0 0 0 0 0 0 0 0 0 0 0
0 0 0 0 0 0 0 0 0 0 0 0 0 0 0 0 0 0 0 0 0 0 0 0 0 0 0 0 0 0 0 0 0 0 0 0 0 0 0 0 0 0 0 0 0 0 0
0 0 0 0 0 0 0 0 0 0 0 0 0 0 0 0 0 0 0 0 0 0 0 0 0 0 0 0 0 0 0 0 0 0 0 0 0 0 0 0 0 0 0 0 0 0 0
0 0 0 0 0 0 0 0 0 0 0 0 0 0 0 0 0 0 0 0 0 0 0 0 0 0 0 0 0 0 0 0 0 0 0 0 0 0 0 0 0 0 0 0 0 0 0
0 0 0 0 0 0 0 0 0 0 0 0 0 0 0 0 0 0 0 0 0 0 0 0 0 0 0 0 0 0 0 0 0 0 0 0 0 0 0 0 0 0 0 0 0 0 0
0 0 0 0 0 0 0 0 0 0 0 0 0 0 0 0 0 0 0 0 0 0 0 0 0 0 0 0 0 0 0 0 0 0 0 0 0 0 0 0 0 0 0 0 0 0 0
0 0 0 0 0 0 0 0 0 0 0 0 0 0 0 0 0 0 0 0 0 0 0 0 0 0 0 0 0 0 0 0 0 0 0 0 0 0 0 0 0 0 0 0 0 0 0
0 0 0 0 0 0 0 0 0 0 0 0 0 0 0 0 0 0 0 0 0 0 0 0 0 0 0 0 0 0 0 0 0 0 0 0 0 0 0 0 0 0 0 0 0 0 0
0 0 0 0 0 0 0 0 0 0 0 0 0 0 0 0 0 0 0 0 0 0 0 0 0 0 0 0 0 0 0 0 0 0 0 0 0 0 0 0 0 0 0 0 -0 -0 0
0 0 0 0 0 0 0 0 0 0 0 0 0 0 0 0 0 0 0 0 0 0 0 0 0 0 0 0 0 0 0 0 0 0 0 0 0 0 0 0 0 -0 -0 -0 0 0 0
0 0 0 0 0 0 0 0 0 0 0 0 0 0 0 0 0 0 0 0 0 0 0 -0 0 0 0 0 0 0 0 0 0 0 0 0 0 0 0 0 0 -0 0 0 0 0 0
0 0 0 0 0 0 0 0 0 0 0 0 0 0 0 0 0 0 0 0 0 0 0 0 0 0 0 0 0 0 0 0 0 0 0 0 0 0 0 0 -0 0 0 0 0 0 0
0 0 0 0 0 0 0 0 0 0 0 0 0 0 0 0 0 0 0 0 0 0 0 0 0 0 0 0 0 0 0 0 0 -0 0 0 0 0 0 0 -0 -0 0 0 0 0 0
0 0 0 0 0 0 0 0 0 0 0 0 0 0 0 0 0 0 0 0 0 0 0 0 0 0 0 0 0 0 0 0 0 0 0 0 0 0 0 0 -0 0 0 0 0 -0 0
0 0 0 0 0 0 0 0 0 0 0 0 0 0 0 0 0 0 0 0 0 0 0 0 0 0 0 0 0 0 0 0 0 0 0 0 0 0 -0 -0 -0 0 0 0 0 0 0
0 0 0 0 0 0 0 0 0 0 0 0 0 0 0 0 0 0 0 0 0 0 0 0 0 0 0 0 0 0 0 0 0 0 0 0 0 0 -0 -0 -0 0 0 0 0 0 0
0 0 0 0 0 0 0 0 0 0 0 0 0 0 0 0 0 0 0 0 0 0 0 0 0 0 0 0 0 0 0 0 0 0 0 0 0 0 0 0 0 0 0 0 0 0 0
Wind_Speed_500mb
49 47 45 42 41 40 43 44 46 48 48 50 48 47 43 42 43 41 39 41 42 45 53 45 45 45 39 17 17 20 15 11 15 16 16 14 12 7 5 3 5 13 4 8 8 9 9
46 43 45 47 48 47 45 45 47 50 53 48 48 44 42 40 42 40 41 46 44 43 54 46 40 42 25 21 18 16 14 12 11 9 12 10 4 5 4 4 9 5 13 18 15 18 12
57 57 56 47 43 47 47 50 50 48 45 45 44 42 42 40 40 42 45 49 41 46 48 49 40 41 26 27 17 18 19 17 13 7 5 5 5 4 2 6 4 8 16 14 13 12 13
50 48 37 46 45 48 53 49 45 43 43 45 44 41 42 41 40 42 44 41 43 41 43 46 41 37 19 28 23 22 21 14 17 10 2 2 1 3 5 3 8 11 11 16 13 7 7
38 44 49 50 54 57 54 57 49 45 46 45 43 42 40 40 40 40 41 38 38 40 39 43 34 12 20 3 4 2 4 11 13 11 7 5 2 6 7 10 14 12 21 11 11 7 6
54 57 66 63 60 62 60 58 47 45 47 44 40 41 38 37 36 35 33 30 35 32 40 31 27 13 14 6 9 8 6 11 10 13 7 9 8 13 9 13 18 17 17 17 19 6 16
51 54 59 58 57 57 54 54 42 41 41 44 37 38 35 34 34 30 21 12 13 9 9 15 7 14 11 12 9 3 6 11 12 16 17 8 15 18 19 11 14 17 21 29 26 9 14
41 40 32 38 41 42 48 39 40 41 38 39 33 36 31 30 26 20 10 9 8 8 20 25 32 38 32 20 11 5 9 14 18 22 9 12 20 18 9 9 14 19 26 31 27 28 23
47 46 42 36 35 40 38 33 35 34 36 38 32 32 26 22 19 15 12 13 12 8 12 12 10 14 12 18 15 20 12 8 15 17 20 25 13 2 8 14 19 24 22 26 27 29 33
49 44 44 44 34 39 37 28 30 32 31 33 28 24 19 12 11 15 11 15 7 3 8 8 7 3 6 10 6 4 14 17 13 19 18 20 9 17 23 25 26 31 22 21 25 23 27
51 46 44 48 39 33 28 26 29 26 24 25 25 21 14 21 12 13 14 16 11 1 10 7 7 3 6 7 1 6 7 15 24 14 8 3 6 6 10 10 7 14 2 9 19 24 29
49 48 42 44 44 32 28 23 28 22 22 21 21 18 15 20 15 17 19 21 12 6 13 6 7 7 8 8 3 7 4 7 3 11 24 31 20 18 21 14 18 9 20 27 28 22 27
52 47 44 43 44 39 35 30 25 20 29 28 21 16 15 21 14 18 29 20 6 10 5 8 6 8 5 5 6 6 7 10 7 8 10 7 19 25 34 25 27 29 23 14 12 16 22
58 52 50 45 45 45 41 34 29 20 28 33 25 19 17 22 23 28 30 6 14 0 2 3 3 9 7 3 4 5 6 11 13 14 14 11 9 6 6 19 11 8 20 16 18 21 17
61 58 57 52 49 48 43 37 32 24 27 39 34 25 20 21 21 29 17 9 5 4 4 5 5 9 8 5 5 5 9 15 8 17 11 7 9 3 14 8 12 8 13 13 21 29 22
68 67 62 59 54 52 48 43 38 29 30 43 39 25 18 25 24 21 10 8 4 1 4 2 9 3 8 6 6 5 7 5 4 9 17 6 16 11 6 19 32 29 12 14 10 14 32
69 70 67 62 62 54 51 47 43 36 33 39 29 14 18 25 23 21 11 10 4 3 3 6 2 3 5 8 12 18 10 6 6 5 5 8 12 5 10 16 19 12 20 14 10 13 12
68 71 71 67 65 59 55 50 48 41 39 42 28 9 24 37 17 13 15 9 7 7 5 3 3 10 13 7 14 15 19 14 9 2 10 10 9 17 31 25 26 29 25 24 15 22 15
69 73 72 75 75 66 63 52 50 45 50 48 26 7 29 38 14 13 10 12 12 9 10 5 7 10 7 7 9 13 19 9 20 25 6 2 9 18 23 20 16 19 21 18 18 20 27
80 79 77 79 77 72 68 56 54 50 49 48 19 9 12 29 10 19 21 16 14 15 21 15 9 9 15 9 17 8 12 8 7 5 13 15 20 29 27 27 18 25 29 24 24 13 25
79 81 82 93 81 80 64 60 59 57 50 50 22 11 18 12 21 16 17 6 20 16 21 16 10 28 19 11 21 31 27 28 35 43 39 19 30 30 35 34 34 34 35 36 39 38 36
89 83 86 80 78 83 74 67 62 59 58 57 19 11 15 9 34 38 23 14 27 18 14 16 24 12 18 30 20 20 25 21 14 8 9 6 19 13 11 26 31 30 19 26 41 48 48
88 88 84 80 79 83 76 72 76 69 72 38 39 24 20 18 23 20 27 28 16 22 26 39 26 19 29 30 35 38 38 34 32 29 26 18 12 13 29 24 23 26 30 37 36 33 26
80 87 88 81 80 83 76 78 82 67 82 44 48 26 19 9 16 23 18 35 32 33 27 23 24 29 10 9 23 30 37 37 37 40 40 27 25 17 19 23 21 3 6 16 24 27 28
66 89 92 93 90 82 74 81 78 76 78 69 38 33 17 10 20 23 30 35 33 35 39 45 49 50 45 4 6 11 9 8 23 45 39 39 27 17 13 22 29 26 21 11 13 24 11
66 77 87 93 84 80 74 75 76 78 72 69 52 41 22 9 22 33 14 26 22 24 25 41 44 32 24 12 10 13 13 11 8 7 33 37 35 21 18 11 14 8 6 6 7 15 3
65 74 79 89 86 79 77 68 69 70 70 69 58 61 34 19 22 11 9 13 14 19 8 9 11 12 33 9 12 17 17 12 10 11 14 19 19 31 29 24 16 15 13 15 13 3 8
62 66 84 83 77 74 74 73 71 71 67 67 65 58 55 19 33 19 25 43 32 29 16 11 10 9 5 11 11 9 13 16 12 12 20 21 15 17 20 18 20 19 17 12 5 8 9
68 74 75 75 75 74 71 67 64 62 64 65 52 56 46 36 15 21 45 53 50 40 36 17 12 8 12 8 8 8 8 9 20 16 22 13 20 7 13 6 6 23 3 7 6 10 7
Wind_Direction_500mb
240 245 248 249 252 260 267 271 278 282 284 285 285 285 282 278 278 283 290 293 298 303 304 311 312 325 336 311 282 274 278 297 331 341 352 359 6 341 303 283 274 259 279 263 254 255 267
237 238 246 252 259 262 267 273 278 281 282 281 282 281 280 282 276 270 279 287 292 293 298 314 318 322 329 285 268 267 274 291 310 349 355 5 356 338 308 294 287 325 283 272 270 256 239
247 252 251 245 255 261 268 277 277 276 277 278 278 280 278 279 280 275 272 279 285 291 295 307 321 321 310 279 272 270 257 281 279 323 345 360 319 274 265 253 316 284 285 242 232 249 226
233 235 251 254 254 261 271 276 274 274 275 276 277 277 278 279 277 277 278 280 283 283 286 299 310 313 267 284 289 277 258 247 267 274 232 243 321 245 263 258 235 253 245 260 141 192 153
243 253 257 253 252 261 265 268 268 271 271 274 278 279 278 278 276 276 278 277 279 288 293 297 302 298 277 293 73 352 245 228 218 238 231 222 244 235 208 234 243 210 270 250 254 213 203
259 253 257 254 258 262 264 263 263 265 268 271 275 276 276 277 277 275 273 278 282 295 292 291 272 267 256 231 243 238 260 189 194 186 214 229 230 240 212 234 271 306 269 254 266 171 237
265 265 258 257 256 261 262 261 255 256 260 270 271 271 271 273 274 274 282 293 295 284 270 231 264 282 297 301 255 205 213 178 192 213 228 198 245 251 318 323 302 280 269 274 281 271 293
256 267 262 255 249 250 257 253 251 251 255 264 264 265 266 262 266 268 247 258 239 270 297 258 253 259 260 268 290 219 185 198 212 233 190 218 247 300 284 281 263 263 270 270 273 270 284
246 254 254 252 260 252 251 252 245 249 246 253 254 260 263 259 245 242 224 208 258 308 264 271 241 252 257 220 239 259 223 209 235 237 230 260 281 327 244 262 271 260 273 280 277 298 284
246 248 254 252 247 256 239 240 230 239 232 240 244 249 257 242 224 216 203 215 225 271 277 169 193 218 171 195 213 235 221 215 218 261 256 272 310 263 262 264 274 279 294 276 281 279 274
242 240 250 252 239 246 236 226 229 237 224 215 224 232 256 186 196 181 202 183 168 57 280 111 124 172 173 218 31 44 150 204 241 215 240 177 237 240 263 279 290 295 189 282 297 290 288
240 241 248 237 235 232 244 255 232 251 197 185 199 213 227 184 186 191 169 157 141 205 244 140 131 170 184 209 126 122 127 144 206 239 239 259 271 270 266 275 240 291 260 275 272 272 261
233 236 236 231 231 229 238 242 238 251 190 184 194 189 192 173 178 174 159 149 173 223 118 158 157 177 209 145 152 200 179 190 255 252 212 260 249 249 241 253 247 243 264 274 263 216 255
231 233 229 235 228 236 234 230 231 227 194 183 187 201 187 177 166 162 157 198 217 39 149 54 178 149 189 161 132 189 200 241 228 246 280 277 253 200 128 223 290 257 243 238 268 278 318
227 228 230 228 223 224 224 226 221 215 204 190 189 190 206 198 173 168 175 213 263 160 118 172 154 209 191 204 268 242 251 269 281 222 248 289 241 182 229 197 226 138 227 262 282 273 273
230 228 226 224 221 218 218 220 216 215 206 193 187 184 203 194 181 168 208 241 209 83 347 203 210 270 194 174 234 240 242 135 223 244 256 298 284 265 306 226 242 250 295 241 231 258 257
230 225 223 222 218 218 213 214 210 209 194 184 185 183 203 184 164 174 209 218 191 185 10 8 153 194 226 267 263 261 257 192 261 75 208 307 246 234 238 231 261 186 219 227 261 247 279
228 225 222 217 214 209 205 209 202 200 183 176 170 196 181 166 173 194 207 206 166 165 195 234 299 260 246 230 264 250 248 235 112 33 287 288 285 262 268 268 263 264 262 256 247 263 250
228 222 221 213 210 204 201 200 195 194 184 174 171 149 174 170 196 194 170 198 191 191 226 203 211 222 214 242 245 259 263 271 279 281 295 16 230 272 253 204 227 238 237 248 269 284 265
221 223 215 214 204 201 200 199 193 189 186 174 162 169 168 199 236 206 185 200 203 212 237 235 236 231 227 237 240 246 239 245 193 286 354 316 260 260 266 285 293 276 275 259 259 256 267
222 214 218 210 209 195 195 200 196 189 187 179 182 204 184 189 203 197 190 191 211 215 216 204 219 232 227 230 254 250 264 273 267 270 270 260 265 263 274 281 276 275 276 279 274 263 261
226 212 217 204 191 194 197 202 199 192 187 190 180 176 187 172 198 203 199 217 223 200 194 207 230 230 237 240 230 281 290 287 296 68 34 238 265 331 271 269 266 267 241 252 263 269 267
224 215 214 208 201 200 203 202 198 195 188 198 207 194 185 177 182 194 213 217 220 226 227 241 251 261 257 260 269 273 278 270 259 272 273 266 258 286 278 271 270 268 238 240 256 248 256
221 213 206 207 199 201 203 197 201 190 197 194 201 187 200 193 205 202 211 221 229 234 242 245 238 242 259 301 267 267 269 259 252 245 245 247 252 255 274 287 254 254 258 259 255 265 255
213 207 200 193 194 194 197 196 202 195 201 203 207 190 194 222 225 235 242 244 248 251 246 254 257 255 268 227 230 259 231 237 242 234 223 221 237 236 244 245 263 284 245 223 224 281 258
213 200 196 195 196 188 191 194 196 193 201 208 212 221 209 239 230 222 243 236 241 242 255 257 269 261 245 196 193 230 233 227 205 219 207 219 216 217 238 257 269 23 133 184 209 257 149
204 197 193 186 187 187 190 197 198 197 206 208 215 220 213 228 235 215 192 234 223 207 255 291 290 248 212 185 209 229 231 216 225 202 167 188 206 222 236 251 263 255 166 144 238 19 134
196 192 181 183 186 185 189 197 202 205 206 207 214 221 218 230 244 231 236 237 248 243 253 260 287 206 179 201 221 204 229 207 235 219 180 187 194 211 231 249 261 144 137 218 71 106 129
193 178 179 182 184 187 193 199 204 208 209 208 208 221 221 225 243 229 239 239 241 244 260 221 258 253 223 242 231 220 217 204 225 226 212 230 221 244 229 238 91 186 303 183 175 161 165
Wind_Speed_850mb
49 47 45 42 41 40 43 44 46 48 48 50 48 47 43 42 43 41 39 41 42 45 53 45 45 45 39 17 17 20 15 11 15 16 16 14 12 7 5 3 5 13 4 8 8 9 9
46 43 45 47 48 47 45 45 47 50 53 48 48 44 42 40 42 40 41 46 44 43 54 46 40 42 25 21 18 16 14 12 11 9 12 10 4 5 4 4 9 5 13 18 15 18 12
57 57 56 47 43 47 47 50 50 48 45 45 44 42 42 40 40 42 45 49 41 46 48 49 40 41 26 27 17 18 19 17 13 7 5 5 5 4 2 6 4 8 16 14 13 12 13
50 48 37 46 45 48 53 49 45 43 43 45 44 41 42 41 40 42 44 41 43 41 43 46 41 37 19 28 23 22 21 14 17 10 2 2 1 3 5 3 8 11 11 16 13 7 7
38 44 49 50 54 57 54 57 49 45 46 45 43 42 40 40 40 40 41 38 38 40 39 43 34 12 20 3 4 2 4 11 13 11 7 5 2 6 7 10 14 12 21 11 11 7 6
54 57 66 63 60 62 60 58 47 45 47 44 40 41 38 37 36 35 33 30 35 32 40 31 27 13 14 6 9 8 6 11 10 13 7 9 8 13 9 13 18 17 17 17 19 6 16
51 54 59 58 57 57 54 54 42 41 41 44 37 38 35 34 34 30 21 12 13 9 9 15 7 14 11 12 9 3 6 11 12 16 17 8 15 18 19 11 14 17 21 29 26 9 14
41 40 32 38 41 42 48 39 40 41 38 39 33 36 31 30 26 20 10 9 8 8 20 25 32 38 32 20 11 5 9 14 18 22 9 12 20 18 9 9 14 19 26 31 27 28 23
47 46 42 36 35 40 38 33 35 34 36 38 32 32 26 22 19 15 12 13 12 8 12 12 10 14 12 18 15 20 12 8 15 17 20 25 13 2 8 14 19 24 22 26 27 29 33
49 44 44 44 34 39 37 28 30 32 31 33 28 24 19 12 11 15 11 15 7 3 8 8 7 3 6 10 6 4 14 17 13 19 18 20 9 17 23 25 26 31 22 21 25 23 27
51 46 44 48 39 33 28 26 29 26 24 25 25 21 14 21 12 13 14 16 11 1 10 7 7 3 6 7 1 6 7 15 24 14 8 3 6 6 10 10 7 14 2 9 19 24 29
49 48 42 44 44 32 28 23 28 22 22 21 21 18 15 20 15 17 19 21 12 6 13 6 7 7 8 8 3 7 4 7 3 11 24 31 20 18 21 14 18 9 20 27 28 22 27
52 47 44 43 44 39 35 30 25 20 29 28 21 16 15 21 14 18 29 20 6 10 5 8 6 8 5 5 6 6 7 10 7 8 10 7 19 25 34 25 27 29 23 14 12 16 22
58 52 50 45 45 45 41 34 29 20 28 33 25 19 17 22 23 28 30 6 14 0 2 3 3 9 7 3 4 5 6 11 13 14 14 11 9 6 6 19 11 8 20 16 18 21 17
61 58 57 52 49 48 43 37 32 24 27 39 34 25 20 21 21 29 17 9 5 4 4 5 5 9 8 5 5 5 9 15 8 17 11 7 9 3 14 8 12 8 13 13 21 29 22
68 67 62 59 54 52 48 43 38 29 30 43 39 25 18 25 24 21 10 8 4 1 4 2 9 3 8 6 6 5 7 5 4 9 17 6 16 11 6 19 32 29 12 14 10 14 32
69 70 67 62 62 54 51 47 43 36 33 39 29 14 18 25 23 21 11 10 4 3 3 6 2 3 5 8 12 18 10 6 6 5 5 8 12 5 10 16 19 12 20 14 10 13 12
68 71 71 67 65 59 55 50 48 41 39 42 28 9 24 37 17 13 15 9 7 7 5 3 3 10 13 7 14 15 19 14 9 2 10 10 9 17 31 25 26 29 25 24 15 22 15
69 73 72 75 75 66 63 52 50 45 50 48 26 7 29 38 14 13 10 12 12 9 10 5 7 10 7 7 9 13 19 9 20 25 6 2 9 18 23 20 16 19 21 18 18 20 27
80 79 77 79 77 72 68 56 54 50 49 48 19 9 12 29 10 19 21 16 14 15 21 15 9 9 15 9 17 8 12 8 7 5 13 15 20 29 27 27 18 25 29 24 24 13 25
79 81 82 93 81 80 64 60 59 57 50 50 22 11 18 12 21 16 17 6 20 16 21 16 10 28 19 11 21 31 27 28 35 43 39 19 30 30 35 34 34 34 35 36 39 38 36
89 83 86 80 78 83 74 67 62 59 58 57 19 11 15 9 34 38 23 14 27 18 14 16 24 12 18 30 20 20 25 21 14 8 9 6 19 13 11 26 31 30 19 26 41 48 48
88 88 84 80 79 83 76 72 76 69 72 38 39 24 20 18 23 20 27 28 16 22 26 39 26 19 29 30 35 38 38 34 32 29 26 18 12 13 29 24 23 26 30 37 36 33 26
80 87 88 81 80 83 76 78 82 67 82 44 48 26 19 9 16 23 18 35 32 33 27 23 24 29 10 9 23 30 37 37 37 40 40 27 25 17 19 23 21 3 6 16 24 27 28
66 89 92 93 90 82 74 81 78 76 78 69 38 33 17 10 20 23 30 35 33 35 39 45 49 50 45 4 6 11 9 8 23 45 39 39 27 17 13 22 29 26 21 11 13 24 11
66 77 87 93 84 80 74 75 76 78 72 69 52 41 22 9 22 33 14 26 22 24 25 41 44 32 24 12 10 13 13 11 8 7 33 37 35 21 18 11 14 8 6 6 7 15 3
65 74 79 89 86 79 77 68 69 70 70 69 58 61 34 19 22 11 9 13 14 19 8 9 11 12 33 9 12 17 17 12 10 11 14 19 19 31 29 24 16 15 13 15 13 3 8
62 66 84 83 77 74 74 73 71 71 67 67 65 58 55 19 33 19 25 43 32 29 16 11 10 9 5 11 11 9 13 16 12 12 20 21 15 17 20 18 20 19 17 12 5 8 9
68 74 75 75 75 74 71 67 64 62 64 65 52 56 46 36 15 21 45 53 50 40 36 17 12 8 12 8 8 8 8 9 20 16 22 13 20 7 13 6 6 23 3 7 6 10 7
Wind_Direction_850mb
240 245 248 249 252 260 267 271 278 282 284 285 285 285 282 278 278 283 290 293 298 303 304 311 312 325 336 311 282 274 278 297 331 341 352 359 6 341 303 283 274 259 279 263 254 255 267
237 238 246 252 259 262 267 273 278 281 282 281 282 281 280 282 276 270 279 287 292 293 298 314 318 322 329 285 268 267 274 291 310 349 355 5 356 338 308 294 287 325 283 272 270 256 239
247 252 251 245 255 261 268 277 277 276 277 278 278 280 278 279 280 275 272 279 285 291 295 307 321 321 310 279 272 270 257 281 279 323 345 360 319 274 265 253 316 284 285 242 232 249 226
233 235 251 254 254 261 271 276 274 274 275 276 277 277 278 279 277 277 278 280 283 283 286 299 310 313 267 284 289 277 258 247 267 274 232 243 321 245 263 258 235 253 245 260 141 192 153
243 253 257 253 252 261 265 268 268 271 271 274 278 279 278 278 276 276 278 277 279 288 293 297 302 298 277 293 73 352 245 228 218 238 231 222 244 235 208 234 243 210 270 250 254 213 203
259 253 257 254 258 262 264 263 263 265 268 271 275 276 276 277 277 275 273 278 282 295 292 291 272 267 256 231 243 238 260 189 194 186 214 229 230 240 212 234 271 306 269 254 266 171 237
265 265 258 257 256 261 262 261 255 256 260 270 271 271 271 273 274 274 282 293 295 284 270 231 264 282 297 301 255 205 213 178 192 213 228 198 245 251 318 323 302 280 269 274 281 271 293
256 267 262 255 249 250 257 253 251 251 255 264 264 265 266 262 266 268 247 258 239 270 297 258 253 259 260 268 290 219 185 198 212 233 190 218 247 300 284 281 263 263 270 270 273 270 284
246 254 254 252 260 252 251 252 245 249 246 253 254 260 263 259 245 242 224 208 258 308 264 271 241 252 257 220 239 259 223 209 235 237 230 260 281 327 244 262 271 260 273 280 277 298 284
246 248 254 252 247 256 239 240 230 239 232 240 244 249 257 242 224 216 203 215 225 271 277 169 193 218 171 195 213 235 221 215 218 261 256 272 310 263 262 264 274 279 294 276 281 279 274
242 240 250 252 239 246 236 226 229 237 224 215 224 232 256 186 196 181 202 183 168 57 280 111 124 172 173 218 31 44 150 204 241 215 240 177 237 240 263 279 290 295 189 282 297 290 288
240 241 248 237 235 232 244 255 232 251 197 185 199 213 227 184 186 191 169 157 141 205 244 140 131 170 184 209 126 122 127 144 206 239 239 259 271 270 266 275 240 291 260 275 272 272 261
233 236 236 231 231 229 238 242 238 251 190 184 194 189 192 173 178 174 159 149 173 223 118 158 157 177 209 145 152 200 179 190 255 252 212 260 249 249 241 253 247 243 264 274 263 216 255
231 233 229 235 228 236 234 230 231 227 194 183 187 201 187 177 166 162 157 198 217 39 149 54 178 149 189 161 132 189 200 241 228 246 280 277 253 200 128 223 290 257 243 238 268 278 318
227 228 230 228 223 224 224 226 221 215 204 190 189 190 206 198 173 168 175 213 263 160 118 172 154 209 191 204 268 242 251 269 281 222 248 289 241 182 229 197 226 138 227 262 282 273 273
230 228 226 224 221 218 218 220 216 215 206 193 187 184 203 194 181 168 208 241 209 83 347 203 210 270 194 174 234 240 242 135 223 244 256 298 284 265 306 226 242 250 295 241 231 258 257
230 225 223 222 218 218 213 214 210 209 194 184 185 183 203 184 164 174 209 218 191 185 10 8 153 194 226 267 263 261 257 192 261 75 208 307 246 234 238 231 261 186 219 227 261 247 279
228 225 222 217 214 209 205 209 202 200 183 176 170 196 181 166 173 194 207 206 166 165 195 234 299 260 246 230 264 250 248 235 112 33 287 288 285 262 268 268 263 264 262 256 247 263 250
228 222 221 213 210 204 201 200 195 194 184 174 171 149 174 170 196 194 170 198 191 191 226 203 211 222 214 242 245 259 263 271 279 281 295 16 230 272 253 204 227 238 237 248 269 284 265
221 223 215 214 204 201 200 199 193 189 186 174 162 169 168 199 236 206 185 200 203 212 237 235 236 231 227 237 240 246 239 245 193 286 354 316 260 260 266 285 293 276 275 259 259 256 267
222 214 218 210 209 195 195 200 196 189 187 179 182 204 184 189 203 197 190 191 211 215 216 204 219 232 227 230 254 250 264 273 267 270 270 260 265 263 274 281 276 275 276 279 274 263 261
226 212 217 204 191 194 197 202 199 192 187 190 180 176 187 172 198 203 199 217 223 200 194 207 230 230 237 240 230 281 290 287 296 68 34 238 265 331 271 269 266 267 241 252 263 269 267
224 215 214 208 201 200 203 202 198 195 188 198 207 194 185 177 182 194 213 217 220 226 227 241 251 261 257 260 269 273 278 270 259 272 273 266 258 286 278 271 270 268 238 240 256 248 256
221 213 206 207 199 201 203 197 201 190 197 194 201 187 200 193 205 202 211 221 229 234 242 245 238 242 259 301 267 267 269 259 252 245 245 247 252 255 274 287 254 254 258 259 255 265 255
213 207 200 193 194 194 197 196 202 195 201 203 207 190 194 222 225 235 242 244 248 251 246 254 257 255 268 227 230 259 231 237 242 234 223 221 237 236 244 245 263 284 245 223 224 281 258
213 200 196 195 196 188 191 194 196 193 201 208 212 221 209 239 230 222 243 236 241 242 255 257 269 261 245 196 193 230 233 227 205 219 207 219 216 217 238 257 269 23 133 184 209 257 149
204 197 193 186 187 187 190 197 198 197 206 208 215 220 213 228 235 215 192 234 223 207 255 291 290 248 212 185 209 229 231 216 225 202 167 188 206 222 236 251 263 255 166 144 238 19 134
196 192 181 183 186 185 189 197 202 205 206 207 214 221 218 230 244 231 236 237 248 243 253 260 287 206 179 201 221 204 229 207 235 219 180 187 194 211 231 249 261 144 137 218 71 106 129
193 178 179 182 184 187 193 199 204 208 209 208 208 221 221 225 243 229 239 239 241 244 260 221 258 253 223 242 231 220 217 204 225 226 212 230 221 244 229 238 91 186 303 183 175 161 165